IW3HBX-13 Weather Reports


Display with metric or nautical units.
time (UTC)temp
F
wind
direction
speed
MPH
gust
MPH
rain 1hr
in
rain 24hr
in
rain mn
in
humidity
%
barometer
mb
20260506205408 59 70 0.0 0.0 0.00 0.19 0.19 91 1011.2
20260506204807 60 73 2.0 3.0 0.00 0.19 0.19 91 1011.3
20260506204207 60 74 3.0 4.0 0.00 0.19 0.19 91 1011.4
20260506203610 60 69 2.0 4.0 0.00 0.19 0.19 91 1011.4
20260506203009 60 69 0.0 1.0 0.00 0.19 0.19 92 1011.3
20260506202409 60 69 2.0 3.0 0.00 0.19 0.19 91 1011.3
20260506201807 60 77 3.0 4.0 0.00 0.19 0.19 92 1011.2
20260506201208 60 82 2.0 4.0 0.00 0.19 0.19 92 1011.1
20260506200610 60 70 1.0 2.0 0.00 0.19 0.19 92 1011.1
20260506195407 60 30 2.0 4.0 0.00 0.19 0.19 92 1010.9
20260506194807 60 38 2.0 2.0 0.00 0.19 0.19 92 1010.8
20260506194210 60 67 1.0 2.0 0.00 0.19 0.19 92 1010.8
20260506193607 60 67 0.0 2.0 0.00 0.19 0.19 92 1010.8
20260506193009 61 70 0.0 2.0 0.00 0.19 0.19 92 1010.7
20260506192410 61 69 0.0 4.0 0.00 0.19 0.19 92 1010.8
20260506191807 61 70 1.0 3.0 0.00 0.19 0.19 92 1010.8
20260506191207 61 76 2.0 4.0 0.00 0.19 0.19 92 1010.6
20260506190608 61 67 3.0 4.0 0.00 0.19 0.19 92 1010.7
20260506185410 61 68 3.0 4.0 0.00 0.19 0.19 91 1010.4
20260506184807 62 77 2.0 2.0 0.00 0.19 0.19 91 1010.4
20260506184207 62 58 3.0 5.0 0.00 0.19 0.19 90 1010.4
20260506183610 62 64 4.0 5.0 0.00 0.19 0.19 90 1010.3
20260506183008 62 65 5.0 6.0 0.00 0.19 0.19 90 1010.2
20260506182408 62 50 1.0 3.0 0.00 0.19 0.19 90 1010.2
20260506181807 63 62 0.0 0.0 0.00 0.19 0.19 90 1010.3
20260506181207 63 62 0.0 2.0 0.00 0.19 0.19 90 1010.3
20260506180607 63 63 0.0 0.0 0.00 0.19 0.19 89 1010.2
20260506175407 63 63 1.0 2.0 0.00 0.19 0.19 89 1010.1
20260506174807 63 69 0.0 2.0 0.00 0.19 0.19 89 1010.0
20260506174207 63 61 1.0 3.0 0.00 0.19 0.19 88 1009.9
20260506173607 63 77 2.0 4.0 0.00 0.19 0.19 88 1009.8
20260506173007 63 76 3.0 4.0 0.00 0.19 0.19 87 1009.9
20260506172407 63 77 2.0 2.0 0.00 0.19 0.19 87 1009.9
20260506171810 63 76 0.0 1.0 0.00 0.19 0.19 87 1009.9
20260506171207 63 57 1.0 2.0 0.00 0.19 0.19 87 1009.9
20260506170607 63 76 0.0 2.0 0.00 0.19 0.19 87 1009.7
20260506165407 63 76 2.0 2.0 0.00 0.19 0.19 86 1009.8
20260506164810 63 78 2.0 3.0 0.00 0.19 0.19 86 1009.8
20260506164207 63 79 1.0 2.0 0.00 0.19 0.19 85 1009.7
20260506163608 63 79 0.0 2.0 0.00 0.19 0.19 85 1009.8
20260506163010 63 79 3.0 4.0 0.00 0.19 0.19 85 1010.0
20260506162407 63 72 2.0 4.0 0.00 0.19 0.19 84 1010.0
20260506161807 64 62 0.0 2.0 0.00 0.19 0.19 85 1010.0
20260506161212 64 75 1.0 4.0 0.00 0.19 0.19 87 1009.9
20260506160608 64 87 1.0 2.0 0.00 0.19 0.19 88 1010.0
20260506155409 64 76 2.0 5.0 0.00 0.19 0.19 88 1010.0
20260506154807 63 66 3.0 3.0 0.00 0.19 0.19 88 1010.0
20260506154207 63 58 3.0 5.0 0.00 0.19 0.19 89 1009.8
20260506153610 64 76 1.0 2.0 0.00 0.19 0.19 89 1009.9
20260506153007 64 78 0.0 1.0 0.00 0.19 0.19 89 1009.9
20260506152407 63 80 0.0 2.0 0.00 0.19 0.19 89 1009.9
20260506151807 64 98 2.0 4.0 0.00 0.19 0.19 89 1009.8
20260506151207 63 86 2.0 5.0 0.00 0.19 0.19 89 1009.9
20260506150610 63 82 4.0 5.0 0.00 0.19 0.19 89 1010.0
20260506145408 63 62 1.0 2.0 0.00 0.19 0.19 90 1010.1
20260506144807 63 74 2.0 3.0 0.00 0.19 0.19 91 1010.1
20260506144209 63 67 2.0 2.0 0.02 0.19 0.19 90 1010.1
20260506143607 62 66 0.0 2.0 0.02 0.19 0.19 91 1010.0
20260506142407 62 80 2.0 3.0 0.05 0.19 0.19 92 1010.0
20260506141807 62 84 1.0 3.0 0.06 0.19 0.19 92 1010.0
20260506141208 62 62 2.0 4.0 0.06 0.19 0.19 92 1010.0
20260506140610 62 69 2.0 4.0 0.09 0.19 0.19 93 1010.0
20260506135407 61 68 0.0 2.0 0.13 0.20 0.19 94 1010.2
20260506134807 61 67 1.0 3.0 0.13 0.20 0.19 93 1010.3
20260506134214 61 81 3.0 4.0 0.11 0.19 0.17 93 1010.4
20260506133607 61 72 2.0 4.0 0.11 0.19 0.17 93 1010.5
20260506132410 61 85 3.0 5.0 0.08 0.16 0.14 92 1010.5
20260506131812 62 78 3.0 4.0 0.08 0.16 0.14 91 1010.6
20260506131207 62 79 2.0 4.0 0.06 0.14 0.13 91 1010.6
20260506130607 62 79 2.0 4.0 0.03 0.11 0.09 89 1010.6
20260506125407 63 143 1.0 2.0 0.00 0.08 0.06 87 1010.7
20260506124807 63 108 0.0 2.0 0.00 0.08 0.06 87 1010.6
20260506124207 63 80 3.0 5.0 0.00 0.08 0.06 86 1010.6
20260506123609 64 91 2.0 4.0 0.00 0.09 0.06 84 1010.7
20260506122413 64 84 2.0 3.0 0.00 0.09 0.06 81 1010.8
20260506121807 64 88 3.0 5.0 0.00 0.09 0.06 81 1010.8
20260506121208 65 88 2.0 2.0 0.00 0.09 0.06 81 1010.7
20260506120607 64 71 3.0 5.0 0.00 0.09 0.06 83 1010.8
20260506115408 64 69 1.0 2.0 0.00 0.09 0.06 82 1011.0
20260506114807 64 63 3.0 5.0 0.00 0.09 0.06 84 1011.1
20260506114207 64 74 2.0 4.0 0.00 0.09 0.06 83 1011.1
20260506113607 63 70 2.0 4.0 0.00 0.09 0.06 83 1011.0
20260506112407 63 71 2.0 4.0 0.00 0.09 0.06 83 1011.2
20260506111809 63 55 2.0 3.0 0.00 0.09 0.06 84 1011.4
20260506111207 63 92 1.0 2.0 0.00 0.09 0.06 85 1011.4
20260506110607 62 111 1.0 2.0 0.02 0.09 0.06 85 1011.4
20260506105407 62 94 2.0 3.0 0.02 0.09 0.06 87 1011.5
20260506104807 62 85 2.0 2.0 0.02 0.09 0.06 87 1011.6
20260506104207 62 48 2.0 3.0 0.03 0.09 0.06 87 1011.5
20260506103609 62 79 1.0 2.0 0.03 0.09 0.06 86 1011.7
20260506102409 62 71 1.0 2.0 0.03 0.09 0.06 85 1011.6
20260506102328 62 56 0.0 2.0 0.03 0.09 0.06 89 1011.7
20260506101807 62 56 0.0 2.0 0.03 0.09 0.06 89 1011.7
20260506101207 62 73 1.0 2.0 0.03 0.09 0.06 89 1011.8
20260506100607 62 134 0.0 2.0 0.02 0.08 0.05 89 1011.9
20260506095600 63 178 0.0 0.0 0.02 0.08 0.05 87 1011.7
20260506095408 62 174 0.0 0.0 0.02 0.08 0.05 88 1011.7
20260506094807 63 178 0.0 0.0 0.02 0.08 0.05 87 1011.7
20260506094209 63 178 1.0 2.0 0.00 0.08 0.03 86 1011.7
20260506093608 63 178 0.0 0.0 0.00 0.08 0.03 85 1011.7
20260506092409 64 184 2.0 2.0 0.00 0.09 0.03 79 1011.7
20260506091810 64 180 1.0 2.0 0.00 0.09 0.03 80 1011.7
20260506091209 64 190 0.0 0.0 0.00 0.09 0.03 80 1011.6
20260506090607 64 130 1.0 2.0 0.00 0.09 0.03 80 1011.7
20260506085407 65 190 0.0 0.0 0.00 0.09 0.03 78 1011.4
20260506084808 64 190 0.0 0.0 0.00 0.09 0.03 79 1011.3
20260506084208 64 190 0.0 0.0 0.00 0.09 0.03 82 1011.4
20260506083607 64 192 0.0 0.0 0.00 0.09 0.03 82 1011.3
20260506082407 63 246 0.0 0.0 0.00 0.09 0.03 84 1011.4
20260506081807 63 50 1.0 2.0 0.00 0.09 0.03 87 1011.3
20260506081207 63 48 0.0 0.0 0.00 0.09 0.03 89 1011.2
20260506080607 62 48 0.0 0.0 0.00 0.09 0.03 90 1011.2
20260506072407 60 314 0.0 0.0 0.00 0.09 0.03 93 1011.5
20260506071807 59 306 0.0 0.0 0.00 0.09 0.03 93 1011.5
20260506071207 59 306 2.0 2.0 0.00 0.09 0.03 93 1011.5
20260506070608 59 204 0.0 0.0 0.00 0.09 0.03 94 1011.6
20260506062407 58 62 0.0 0.0 0.02 0.09 0.03 94 1011.4
20260506061810 58 62 0.0 0.0 0.02 0.09 0.03 94 1011.3
20260506061207 58 62 2.0 2.0 0.02 0.09 0.03 95 1011.4
20260506060610 58 62 1.0 2.0 0.02 0.09 0.03 95 1011.3
20260506051207 57 77 0.0 2.0 0.02 0.08 0.02 94 1011.7
20260506050607 57 76 0.0 2.0 0.02 0.08 0.02 94 1011.8
20260506044809 56 77 0.0 1.0 0.00 0.06 0.00 94 1011.7
20260506044207 56 72 0.0 1.0 0.00 0.06 0.00 94 1011.7
20260506043607 56 72 0.0 2.0 0.00 0.06 0.00 94 1011.6
20260506042410 56 61 2.0 4.0 0.00 0.06 0.00 94 1011.3
20260506041807 56 65 2.0 2.0 0.00 0.06 0.00 94 1011.4
20260506041207 56 72 0.0 1.0 0.00 0.06 0.00 94 1011.4
20260506040610 56 72 1.0 2.0 0.00 0.06 0.00 94 1011.4
20260506035407 56 73 2.0 2.0 0.00 0.06 0.00 94 1011.3
20260506034809 56 73 1.0 3.0 0.00 0.06 0.00 94 1011.4
20260506034207 56 72 2.0 3.0 0.00 0.06 0.00 94 1011.5
20260506033608 56 74 2.0 3.0 0.00 0.06 0.00 94 1011.6
20260506032407 56 77 0.0 1.0 0.00 0.06 0.00 94 1011.8
20260506031807 56 76 1.0 4.0 0.00 0.06 0.00 94 1011.8
20260506031207 56 72 1.0 2.0 0.00 0.06 0.00 94 1011.8
20260506030607 55 77 2.0 3.0 0.00 0.06 0.00 94 1011.7
20260506025409 55 74 3.0 5.0 0.00 0.06 0.00 94 1012.0
20260506024807 55 66 2.0 4.0 0.00 0.06 0.00 94 1012.0
20260506024207 55 48 0.0 3.0 0.00 0.06 0.00 94 1012.0
20260506023609 55 27 1.0 2.0 0.00 0.06 0.00 94 1012.0
20260506022409 55 22 1.0 1.0 0.00 0.06 0.00 94 1012.1
20260506021808 55 20 1.0 3.0 0.00 0.06 0.00 94 1012.1
20260506021208 55 22 0.0 1.0 0.00 0.06 0.00 94 1012.1
20260506020610 55 23 1.0 2.0 0.00 0.06 0.00 94 1012.2
20260506015407 55 24 0.0 1.0 0.00 0.06 0.00 94 1012.4
20260506014808 55 23 0.0 0.0 0.00 0.06 0.00 94 1012.5
20260506014209 55 23 0.0 0.0 0.00 0.06 0.00 94 1012.5
20260506013607 55 23 1.0 2.0 0.00 0.06 0.00 94 1012.5
20260506013007 55 23 0.0 1.0 0.00 0.06 0.00 94 1012.6
20260506012409 55 23 0.0 0.0 0.00 0.06 0.00 94 1012.5
20260506011807 55 23 0.0 0.0 0.00 0.06 0.00 94 1012.5
20260506011208 55 23 0.0 0.0 0.00 0.06 0.00 94 1012.6
20260506010610 55 23 0.0 0.0 0.00 0.06 0.00 94 1012.6
20260506005407 55 23 1.0 2.0 0.00 0.06 0.00 94 1012.6
20260506004809 55 23 0.0 2.0 0.00 0.06 0.00 94 1012.6
20260506004207 55 23 0.0 0.0 0.00 0.06 0.00 94 1012.6
20260506003607 55 23 0.0 1.0 0.00 0.06 0.00 94 1012.7
20260506002408 55 23 0.0 0.0 0.00 0.06 0.00 94 1012.8
20260506001810 56 23 0.0 1.0 0.00 0.06 0.00 94 1012.7
20260506001207 56 23 0.0 0.0 0.00 0.06 0.00 94 1012.7
20260506000610 56 23 0.0 0.0 0.00 0.06 0.00 94 1012.6
20260505235407 56 23 0.0 0.0 0.00 0.06 0.00 93 1012.7
20260505234807 56 23 0.0 2.0 0.00 0.06 0.00 93 1012.7
20260505234207 57 23 0.0 2.0 0.00 0.06 0.00 93 1012.7
20260505233607 57 33 2.0 2.0 0.00 0.06 0.00 93 1012.7
20260505232407 57 52 1.0 2.0 0.00 0.06 0.00 93 1013.0
20260505231807 57 71 0.0 2.0 0.00 0.06 0.00 93 1013.1
20260505231207 57 71 2.0 4.0 0.00 0.06 0.00 92 1013.2
20260505230610 57 28 1.0 3.0 0.00 0.06 0.00 92 1013.3
20260505225409 57 68 1.0 4.0 0.00 0.06 0.00 92 1013.3
20260505224807 57 74 3.0 5.0 0.00 0.06 0.00 92 1013.4
20260505224208 57 69 1.0 3.0 0.00 0.06 0.00 92 1013.5
20260505223607 57 65 1.0 3.0 0.00 0.06 0.00 92 1013.4
20260505222407 57 357 1.0 2.0 0.00 0.06 0.00 92 1013.7
20260505221807 57 354 0.0 0.0 0.00 0.06 0.00 92 1013.8
20260505221207 57 354 1.0 1.0 0.00 0.06 0.00 92 1013.7
20260505220609 57 2 1.0 2.0 0.00 0.06 0.00 92 1013.7
20260505215407 57 15 0.0 1.0 0.00 0.06 0.06 93 1013.7
20260505214807 57 66 1.0 2.0 0.00 0.06 0.06 93 1013.8
20260505214207 57 67 0.0 2.0 0.00 0.06 0.06 93 1013.8
20260505213610 57 75 1.0 2.0 0.00 0.06 0.06 93 1013.8
20260505213007 57 77 1.0 2.0 0.00 0.06 0.06 93 1013.9
20260505212407 57 24 1.0 5.0 0.00 0.06 0.06 93 1013.9
20260505211807 57 11 2.0 2.0 0.00 0.06 0.06 93 1013.9
20260505211210 57 26 1.0 2.0 0.00 0.06 0.06 93 1013.9
20260505210609 57 60 0.0 2.0 0.00 0.06 0.06 93 1014.0